Temp
-1 -0 0 1 2 2 2 2 2 2 2 3 2 3 2 2 3 2 2 2 2 3 2 1 2 2 2 3 3 3 3 3 3 3 3 3 3 3 3 3 3 2 2
-1 -1 -1 -0 1 2 2 2 2 2 2 3 2 2 2 2 2 3 3 3 3 2 3 1 2 2 2 2 3 3 3 3 3 3 3 3 3 3 3 3 3 2 2
-1 -1 -0 1 1 1 1 1 2 2 2 2 2 2 2 2 3 3 2 2 2 2 2 2 2 2 2 2 3 2 2 2 2 2 2 2 2 3 3 3 2 2 2
-3 -1 -1 0 -0 1 0 1 1 1 2 2 1 2 2 2 2 2 2 2 2 2 2 2 1 1 1 1 2 2 2 2 2 2 2 2 2 3 3 2 2 2 2
-4 -1 -1 -1 -1 1 0 0 1 1 1 1 1 1 1 2 2 2 2 2 2 2 2 2 1 -1 -0 0 1 1 1 1 1 2 2 2 2 2 2 1 2 2 2
-3 -3 -1 -1 -0 0 0 0 1 1 1 1 1 1 2 1 2 2 2 2 2 2 2 2 1 -2 -1 -0 -0 0 1 1 1 2 1 3 2 2 2 2 3 2 1
-4 -3 -2 -1 -1 -0 0 -0 0 0 1 1 1 1 2 1 1 1 2 2 2 2 1 2 1 -1 -2 -1 -1 -0 0 1 1 1 2 1 1 1 2 3 2 1 1
-4 -4 -3 -2 -1 -0 -0 0 -0 1 0 1 1 1 1 1 1 1 2 2 2 1 1 1 0 -1 -2 -4 -3 -1 -0 0 0 1 0 1 2 2 2 1 1 1 2
-4 -4 -3 -3 -2 -1 -0 -0 0 0 0 1 1 1 1 1 1 1 1 1 1 1 0 -0 -0 -1 -3 -4 -2 -1 -0 0 0 0 1 1 2 2 1 1 1 1 2
-6 -4 -3 -3 -3 -2 -1 -1 -1 -0 0 0 0 -0 0 1 1 1 0 0 1 0 -1 -1 -1 -2 -3 -3 -2 -1 -1 -1 -1 -0 1 1 1 1 1 0 1 1 1
-7 -4 -4 -4 -3 -3 -2 -2 -1 -0 0 0 0 0 0 1 0 0 -0 -0 -0 -0 -1 -0 -1 -1 -2 -3 -3 -2 -2 -2 -2 -1 -0 0 -0 -0 -1 -0 -0 -0 0
-8 -6 -5 -4 -4 -3 -2 -1 -1 -1 -0 -0 -0 0 -0 0 -0 0 -0 -0 -0 -1 -1 -1 -1 -2 -3 -4 -4 -2 -2 -1 -2 -1 -1 -1 -1 -1 -1 -0 -0 -0 -0
-9 -8 -6 -5 -4 -4 -3 -2 -2 -1 -1 -1 -1 -0 -0 -1 -1 -0 -1 -0 -1 -0 -1 -1 -1 -2 -4 -3 -2 -2 -2 -3 -2 -2 -2 -2 -2 -0 -1 -1 -1 -1 -0
-10 -9 -8 -6 -6 -5 -4 -3 -2 -2 -1 -1 -1 -0 -0 -0 -0 -0 -1 -1 -1 -1 -1 -1 -1 -2 -2 -2 -2 -2 -3 -3 -2 -2 -2 -2 -2 -2 -1 -1 -1 -1 -0
-12 -10 -9 -7 -7 -6 -5 -4 -3 -3 -2 -1 -1 -1 -1 -1 -0 -1 -1 -1 -1 -1 -1 -2 -2 -2 -2 -2 -2 -2 -2 -2 -2 -2 -2 -2 -2 -2 -2 -1 -1 -1 -1
-13 -12 -10 -9 -8 -6 -6 -5 -4 -4 -2 -1 -1 -1 -1 -1 -2 -1 -1 -2 -1 -1 -1 -2 -2 -2 -1 -2 -2 -2 -2 -2 -2 -2 -2 -2 -2 -2 -1 -2 -1 -1 -1
-14 -13 -12 -11 -9 -7 -7 -6 -5 -4 -3 -2 -1 -1 -1 -1 -1 -2 -2 -2 -2 -2 -2 -2 -2 -2 -2 -2 -3 -3 -3 -3 -3 -3 -3 -3 -3 -2 -3 -3 -3 -2 -2
-15 -14 -13 -12 -10 -9 -8 -7 -6 -6 -4 -3 -2 -2 -2 -2 -2 -2 -2 -2 -2 -2 -2 -2 -2 -3 -3 -3 -3 -4 -5 -5 -5 -4 -5 -5 -5 -4 -4 -4 -2 -2 -2
-15 -15 -14 -12 -11 -10 -9 -7 -7 -6 -5 -5 -3 -2 -2 -2 -2 -2 -2 -2 -2 -2 -2 -2 -2 -3 -3 -3 -4 -4 -4 -5 -5 -6 -7 -6 -5 -4 -4 -4 -3 -3 -2
-16 -15 -15 -14 -12 -11 -10 -9 -8 -7 -6 -6 -5 -4 -3 -2 -2 -2 -2 -2 -2 -2 -2 -2 -2 -3 -3 -3 -3 -4 -5 -4 -5 -6 -6 -5 -4 -4 -3 -3 -3 -3 -3
-17 -16 -15 -14 -13 -12 -12 -11 -9 -8 -7 -6 -6 -6 -5 -4 -3 -3 -3 -2 -3 -3 -3 -3 -3 -3 -3 -4 -4 -4 -4 -5 -6 -5 -5 -5 -4 -3 -3 -3 -3 -3 -4
-17 -16 -16 -16 -14 -13 -13 -12 -10 -10 -9 -8 -7 -6 -6 -6 -5 -4 -3 -3 -3 -3 -3 -4 -4 -3 -4 -5 -5 -5 -5 -6 -5 -5 -4 -4 -4 -4 -4 -4 -4 -5 -5
-18 -17 -16 -16 -15 -14 -13 -13 -12 -11 -10 -9 -9 -8 -7 -6 -6 -6 -6 -5 -5 -4 -4 -4 -4 -4 -4 -4 -4 -5 -5 -6 -6 -5 -4 -4 -5 -5 -5 -5 -5 -6 -6
-18 -17 -17 -16 -15 -15 -14 -13 -12 -12 -11 -10 -10 -9 -8 -7 -6 -6 -6 -6 -6 -6 -6 -5 -5 -5 -5 -5 -5 -6 -6 -6 -6 -6 -6 -6 -6 -6 -6 -6 -6 -6 -7
-19 -18 -17 -17 -16 -15 -14 -14 -13 -13 -12 -11 -11 -10 -10 -9 -8 -8 -8 -7 -7 -7 -7 -7 -7 -7 -7 -7 -7 -7 -7 -7 -7 -7 -7 -7 -7 -7 -7 -7 -7 -7 -8
-19 -19 -18 -17 -17 -16 -15 -14 -14 -13 -13 -12 -12 -11 -10 -10 -9 -9 -9 -9 -9 -8 -8 -8 -8 -8 -8 -8 -8 -8 -8 -8 -8 -8 -8 -8 -8 -8 -8 -8 -8 -9 -9
Height
2935 2941 2944 2958 2969 2979 2988 2996 3003 3011 3018 3024 3031 3038 3044 3050 3057 3064 3069 3076 3084 3091 3097 3104 3111 3118 3123 3129 3133 3139 3143 3148 3152 3154 3156 3157 3158 3159 3160 3160 3160 3159 3157
2927 2933 2934 2952 2958 2969 2978 2985 2993 3002 3010 3016 3023 3029 3036 3043 3050 3054 3061 3067 3073 3080 3088 3094 3103 3110 3115 3121 3126 3132 3136 3141 3145 3147 3149 3150 3151 3153 3154 3154 3153 3153 3150
2913 2922 2930 2941 2950 2960 2969 2976 2984 2992 3000 3007 3012 3019 3027 3033 3039 3046 3052 3059 3065 3072 3079 3086 3095 3102 3108 3114 3120 3125 3129 3133 3137 3140 3143 3144 3145 3146 3148 3147 3146 3146 3144
2909 2913 2923 2931 2942 2953 2962 2969 2976 2983 2990 2997 3003 3011 3017 3023 3030 3037 3042 3050 3057 3063 3071 3076 3082 3092 3100 3108 3113 3118 3122 3126 3129 3132 3135 3138 3139 3139 3140 3140 3140 3138 3138
2902 2905 2915 2923 2932 2943 2951 2959 2968 2975 2981 2988 2995 3000 3007 3013 3020 3026 3033 3039 3046 3053 3061 3066 3072 3083 3093 3101 3106 3109 3113 3117 3121 3125 3127 3129 3132 3130 3133 3132 3130 3129 3130
2897 2897 2905 2914 2928 2933 2939 2951 2958 2965 2972 2977 2982 2989 2996 3004 3011 3017 3023 3029 3036 3044 3051 3057 3063 3072 3082 3089 3096 3099 3105 3108 3113 3117 3119 3123 3124 3125 3124 3123 3122 3122 3121
2894 2896 2901 2905 2912 2918 2929 2939 2949 2956 2963 2967 2972 2979 2986 2994 3001 3007 3012 3018 3027 3033 3041 3048 3054 3061 3069 3077 3086 3092 3096 3101 3106 3110 3112 3116 3115 3115 3116 3114 3114 3113 3111
2890 2892 2893 2897 2902 2911 2922 2928 2938 2946 2953 2958 2964 2970 2977 2984 2990 2997 3003 3009 3017 3025 3033 3040 3045 3050 3058 3068 3079 3085 3091 3093 3098 3101 3103 3104 3106 3108 3107 3106 3105 3104 3102
2883 2885 2888 2892 2898 2902 2911 2921 2929 2935 2942 2949 2956 2961 2967 2974 2982 2988 2993 2999 3007 3017 3025 3030 3036 3043 3051 3062 3070 3077 3081 3085 3089 3093 3095 3097 3099 3098 3098 3097 3096 3095 3093
2878 2879 2882 2886 2889 2895 2901 2909 2917 2925 2933 2941 2947 2953 2958 2966 2974 2980 2986 2992 3000 3009 3015 3022 3028 3036 3044 3053 3060 3068 3073 3079 3082 3085 3087 3088 3089 3090 3089 3089 3088 3087 3085
2870 2872 2876 2878 2883 2888 2894 2901 2909 2916 2925 2932 2941 2947 2950 2958 2965 2973 2980 2985 2994 3002 3008 3014 3021 3027 3034 3044 3053 3060 3066 3068 3070 3075 3078 3080 3080 3080 3081 3081 3081 3079 3077
2864 2867 2870 2872 2876 2881 2886 2894 2901 2908 2916 2923 2930 2938 2944 2951 2958 2966 2973 2981 2988 2995 3002 3009 3015 3020 3028 3036 3044 3050 3055 3058 3062 3068 3069 3071 3071 3071 3072 3072 3072 3070 3067
2859 2861 2862 2866 2872 2876 2881 2887 2894 2900 2905 2913 2922 2930 2938 2945 2952 2959 2966 2971 2977 2986 2994 3001 3008 3013 3022 3028 3036 3041 3046 3049 3055 3059 3061 3062 3061 3063 3063 3063 3063 3061 3057
2853 2855 2856 2862 2866 2871 2875 2880 2886 2892 2899 2905 2915 2925 2931 2938 2945 2952 2958 2962 2968 2977 2985 2992 2998 3005 3013 3021 3026 3032 3037 3042 3046 3050 3051 3052 3053 3053 3054 3054 3053 3051 3049
2851 2852 2852 2856 2861 2865 2869 2873 2878 2885 2891 2898 2907 2917 2926 2932 2940 2947 2954 2959 2965 2971 2978 2983 2989 2997 3005 3012 3019 3026 3030 3034 3038 3040 3042 3043 3044 3045 3044 3044 3043 3042 3041
2847 2847 2849 2852 2855 2859 2863 2867 2872 2878 2884 2892 2899 2909 2918 2928 2936 2943 2949 2954 2960 2967 2973 2979 2986 2992 2999 3006 3011 3017 3021 3025 3028 3030 3032 3033 3034 3034 3034 3036 3036 3034 3033
2841 2841 2845 2849 2849 2853 2857 2860 2866 2871 2876 2882 2892 2901 2910 2920 2928 2936 2943 2950 2956 2961 2966 2974 2981 2987 2992 2998 3004 3009 3014 3017 3019 3022 3023 3023 3024 3026 3027 3027 3027 3027 3027
2839 2839 2842 2845 2845 2847 2851 2855 2859 2864 2869 2875 2882 2892 2902 2910 2918 2925 2934 2941 2946 2952 2961 2968 2975 2980 2986 2992 2998 3001 3006 3008 3011 3012 3013 3014 3017 3018 3019 3020 3020 3021 3022
2836 2836 2836 2838 2839 2842 2845 2847 2852 2858 2863 2869 2876 2883 2892 2901 2908 2916 2925 2932 2940 2947 2954 2960 2967 2973 2980 2986 2991 2994 2998 3001 3002 3002 3005 3007 3009 3010 3012 3014 3014 3015 3015
2832 2833 2833 2833 2835 2837 2839 2841 2847 2853 2858 2864 2869 2875 2883 2891 2898 2905 2914 2922 2931 2938 2945 2952 2959 2966 2972 2976 2982 2985 2988 2991 2993 2995 2997 3000 3002 3004 3006 3008 3008 3009 3009
2830 2829 2828 2828 2830 2832 2836 2839 2842 2846 2851 2857 2865 2871 2876 2882 2888 2897 2906 2915 2923 2930 2937 2944 2950 2957 2962 2968 2972 2976 2981 2982 2984 2987 2990 2993 2995 2998 3000 3001 3001 3002 3002
2824 2825 2826 2826 2828 2832 2833 2835 2836 2841 2845 2851 2859 2867 2871 2877 2882 2889 2897 2905 2913 2920 2928 2934 2941 2948 2954 2958 2962 2968 2971 2973 2977 2980 2983 2987 2989 2991 2992 2993 2994 2994 2995
2819 2820 2821 2823 2824 2825 2827 2829 2833 2837 2841 2846 2852 2859 2866 2872 2877 2883 2890 2896 2903 2910 2918 2925 2932 2938 2943 2949 2954 2958 2962 2966 2969 2973 2976 2979 2981 2983 2984 2985 2986 2988 2988
2814 2815 2816 2818 2819 2820 2823 2826 2828 2833 2837 2840 2846 2852 2860 2865 2871 2878 2885 2891 2895 2902 2909 2916 2922 2928 2934 2940 2944 2949 2953 2957 2961 2965 2969 2971 2973 2975 2977 2978 2980 2981 2981
2809 2810 2811 2813 2815 2817 2818 2820 2825 2829 2833 2836 2841 2847 2854 2859 2864 2871 2877 2884 2889 2895 2902 2908 2913 2919 2924 2931 2936 2941 2945 2950 2954 2957 2961 2963 2965 2967 2970 2971 2972 2972 2973
2806 2807 2808 2809 2811 2813 2814 2818 2820 2824 2828 2833 2838 2842 2846 2852 2858 2865 2872 2877 2882 2888 2894 2900 2905 2911 2917 2923 2929 2933 2937 2942 2946 2949 2952 2955 2957 2959 2961 2963 2965 2966 2967
Wind_Speed
54 49 51 50 52 49 48 47 51 48 47 44 46 46 46 39 49 43 43 42 50 42 55 52 46 45 42 42 39 36 32 30 28 27 25 24 23 23 24 25 25 25 24
61 65 50 52 50 50 48 47 51 52 51 48 46 49 51 49 46 47 43 43 50 50 43 58 47 47 46 44 41 39 36 34 31 29 28 26 24 25 27 28 27 28 26
42 55 56 53 52 50 49 49 49 50 50 47 44 50 50 49 46 49 47 42 45 48 51 48 50 49 48 46 44 42 38 35 33 31 30 29 27 28 29 30 29 31 29
27 58 50 62 57 50 50 48 46 46 47 46 48 47 50 46 49 46 46 53 48 47 49 51 57 53 50 47 45 42 40 37 35 34 32 31 30 28 30 32 31 31 32
22 46 57 68 49 55 54 52 49 45 48 45 49 48 52 48 48 50 49 53 53 51 51 51 56 56 49 46 45 43 42 39 36 36 34 32 34 27 33 33 31 35 37
20 22 52 59 73 55 54 52 47 45 43 47 47 50 51 52 48 48 50 50 55 52 54 49 54 57 53 48 46 44 43 39 38 37 35 34 32 32 34 34 36 39 40
23 21 37 54 56 52 54 51 57 47 41 44 45 56 50 50 51 48 49 49 54 51 54 54 55 57 57 49 45 44 43 40 37 37 34 36 33 34 36 36 40 42 40
27 25 26 49 49 57 53 50 45 45 46 45 45 48 47 50 46 46 48 51 53 49 50 50 53 54 52 49 44 46 41 37 36 34 36 33 35 39 38 39 39 40 38
29 23 24 34 46 50 55 52 48 48 46 50 45 48 50 48 42 47 49 52 51 47 43 46 47 47 40 40 45 44 39 36 34 40 40 38 42 40 39 37 35 32 32
25 28 28 26 33 45 51 51 49 52 47 41 38 32 40 47 42 41 42 44 46 41 41 40 43 45 46 43 40 40 41 40 40 43 41 41 39 36 31 27 26 27 30
24 28 29 28 27 38 44 47 47 48 50 42 42 35 31 45 45 41 37 39 42 40 38 37 37 42 55 47 44 47 48 48 43 39 38 33 27 25 25 28 33 36 39
21 25 27 29 30 32 43 47 48 48 48 43 38 40 32 33 41 43 40 41 41 37 37 34 36 41 46 48 48 46 36 38 33 33 29 28 30 32 35 37 38 41 44
19 22 24 28 30 33 40 47 49 48 42 39 38 35 39 35 35 36 34 38 47 44 41 35 39 48 50 51 41 35 37 33 34 33 32 34 37 41 42 44 46 42 38
17 19 21 26 26 33 36 44 49 49 46 44 41 42 38 41 40 38 30 34 38 43 39 34 39 51 53 43 40 46 40 38 39 38 39 42 43 38 38 33 31 32 32
13 17 19 24 25 29 33 37 47 47 49 49 47 42 41 41 37 34 33 40 37 38 37 36 37 43 46 45 42 38 38 36 38 40 39 37 34 31 30 31 32 33 34
13 14 17 21 23 28 28 33 39 42 49 50 45 49 46 40 38 36 35 29 29 35 35 31 31 31 33 32 31 32 32 32 32 31 29 29 30 32 31 31 32 30 27
12 13 15 19 21 26 27 28 31 35 44 54 54 51 49 48 44 42 39 33 32 33 34 34 33 32 32 31 27 26 27 28 27 27 28 32 31 28 27 25 21 19 18
10 11 15 17 19 23 27 29 28 29 36 42 54 56 53 51 48 47 42 39 41 37 34 32 27 29 26 25 25 24 23 24 26 30 29 27 22 21 20 18 15 13 14
12 10 13 16 18 21 23 27 30 29 30 35 45 57 57 57 52 48 44 45 45 39 38 37 31 33 30 27 26 29 27 29 31 25 24 22 20 19 16 14 12 14 18
14 12 11 13 17 18 20 24 28 32 31 28 33 47 54 54 58 56 49 47 45 44 39 42 37 35 36 35 32 29 32 31 27 24 23 20 18 16 15 15 17 20 22
12 14 12 11 14 18 19 21 24 27 34 33 30 32 42 50 53 51 48 49 43 44 39 39 37 38 37 36 35 37 35 31 28 24 22 20 17 15 16 18 20 22 24
12 12 13 12 13 17 19 19 22 24 27 33 36 35 33 36 44 47 46 44 44 45 41 37 40 40 40 34 34 35 33 28 24 23 21 19 18 18 20 21 23 24 24
12 12 12 13 14 14 16 18 20 23 25 27 31 37 39 38 35 36 38 39 42 44 42 40 43 40 38 37 38 36 30 27 25 24 22 21 21 22 23 23 23 23 23
13 12 13 14 14 14 15 16 19 22 23 26 28 33 38 41 43 41 37 36 37 37 38 40 41 38 39 39 37 33 30 28 26 24 23 23 24 24 23 23 22 22 22
12 12 13 13 14 14 15 15 17 20 22 23 27 29 34 37 38 39 39 38 39 39 37 37 37 37 37 34 32 30 29 28 27 25 24 23 22 22 21 21 21 21 21
12 12 12 13 13 14 15 16 16 17 19 22 23 26 30 33 36 36 35 36 37 37 36 35 35 35 34 33 31 29 28 27 25 24 23 22 21 20 20 21 20 20 20
Wind_Direction
218 219 216 211 211 213 217 217 216 219 220 221 221 221 222 216 220 226 219 224 219 227 224 213 219 223 224 227 229 231 233 236 238 242 247 252 257 266 271 276 278 282 289
204 216 213 213 208 211 215 214 215 220 224 224 220 222 225 228 223 225 225 226 222 222 227 222 222 223 224 226 228 230 232 234 238 243 248 253 259 267 271 274 280 283 291
207 212 218 215 210 209 214 215 215 219 223 226 223 220 226 228 229 221 224 220 221 224 223 225 223 226 226 228 229 230 232 235 240 244 250 256 259 266 272 275 280 284 287
231 214 212 208 214 209 215 214 214 216 222 223 220 219 222 223 224 221 223 222 225 224 227 227 225 224 227 228 230 232 235 237 241 246 252 258 264 266 275 277 278 286 288
217 208 217 221 207 210 212 215 217 222 223 222 219 224 225 225 228 228 229 227 225 226 227 224 227 218 225 228 230 231 235 238 242 248 254 258 264 272 273 275 283 284 283
229 219 214 205 216 199 209 213 215 221 223 225 230 225 226 225 229 233 230 226 223 224 225 224 222 220 220 222 226 229 234 238 245 250 254 263 267 270 274 279 282 280 281
220 210 208 197 191 194 202 210 216 221 224 222 225 220 224 224 228 233 228 220 218 220 229 224 222 220 218 216 225 232 235 237 245 251 258 262 266 268 271 277 278 279 286
220 211 204 206 196 194 201 200 213 220 225 219 218 220 218 223 228 231 222 218 217 221 225 230 232 227 224 215 221 230 233 238 243 253 259 264 271 271 273 276 279 282 285
221 217 214 207 207 196 200 207 216 205 209 214 215 217 219 216 220 222 217 209 209 215 227 230 231 231 212 213 225 228 231 235 244 248 256 256 263 268 270 274 278 283 287
226 222 225 221 213 206 198 204 205 205 206 206 207 212 216 213 216 219 220 215 212 214 220 223 228 219 204 214 222 229 230 234 242 245 249 258 264 268 268 267 275 283 294
227 224 230 235 231 217 202 205 206 200 197 196 203 207 205 205 206 204 206 213 209 212 218 224 227 223 212 213 226 227 236 235 237 244 251 253 247 249 262 274 283 291 295
229 227 230 233 231 230 213 209 207 196 199 202 204 203 200 203 210 207 213 211 213 214 215 224 226 217 210 215 223 229 230 234 235 236 236 247 256 267 276 286 292 294 295
228 225 229 234 228 226 218 214 208 198 192 190 194 195 202 199 197 203 212 216 215 213 218 226 226 224 217 223 221 221 222 226 230 238 248 262 272 277 286 289 289 291 293
229 226 221 226 228 227 221 216 211 204 194 190 194 197 198 201 198 201 204 200 200 206 215 211 216 216 219 230 220 220 221 228 234 251 264 269 272 276 278 278 279 283 291
234 227 220 220 220 227 224 219 216 210 200 193 191 195 201 203 208 209 204 203 202 206 196 195 199 209 218 220 220 228 234 243 252 256 256 259 263 263 266 273 279 284 286
236 228 222 221 218 221 223 219 217 216 203 199 200 194 195 201 209 205 195 194 202 204 209 214 210 211 214 218 222 228 235 237 239 245 251 256 259 262 270 276 278 281 286
240 229 223 223 218 218 219 217 217 215 213 201 198 198 198 196 197 197 202 199 202 201 208 212 215 215 211 213 217 222 231 238 244 253 259 269 267 271 271 271 274 279 285
245 231 224 221 217 217 218 215 213 215 217 213 199 196 198 199 205 200 200 204 202 198 201 201 210 211 209 218 224 235 239 249 262 264 264 261 263 261 258 260 267 273 289
262 241 227 223 220 214 216 216 215 211 214 219 216 203 203 204 206 209 206 206 210 209 207 206 208 210 213 225 235 233 246 251 264 262 256 256 251 248 253 260 265 282 294
270 259 237 222 223 217 212 211 216 213 209 209 214 215 213 212 209 207 207 208 206 212 211 217 215 218 224 221 223 233 244 264 263 252 247 239 240 250 254 256 271 286 292
256 264 255 232 222 220 216 211 212 214 211 208 209 209 205 200 200 200 203 208 210 214 217 214 213 219 224 232 229 238 252 259 242 235 232 233 235 243 257 268 278 285 290
251 250 252 248 228 221 215 212 209 210 211 209 209 208 204 203 200 197 199 203 207 207 221 224 222 218 219 224 235 247 257 237 228 224 227 233 244 255 264 271 278 284 289
250 247 244 244 243 230 219 211 210 210 206 206 209 212 209 205 203 197 192 193 197 199 204 212 214 218 226 237 244 250 230 220 221 224 232 241 250 258 265 274 281 285 288
251 247 243 240 239 237 230 217 208 209 209 204 202 208 211 209 207 206 205 200 200 202 203 211 217 224 232 237 237 220 216 220 225 233 241 248 255 262 269 274 279 284 289
248 246 243 239 235 233 233 229 215 208 206 206 204 203 208 207 205 204 203 201 200 201 206 215 224 227 227 220 216 215 219 224 230 237 244 250 256 263 268 273 276 281 283
245 241 240 239 234 230 225 228 229 217 207 205 205 204 204 205 207 206 201 198 199 201 201 203 208 212 211 211 215 220 224 229 233 237 242 249 253 258 263 268 273 276 281